Tracking 19709 objects as of 17-Jun-2019
HD Live streaming from Space Station
objects crossing your sky now

FLOCK 3K 8

Track FLOCK 3K 8 now!
10-day predictions
FLOCK 3K 8 is classified as:


NORAD ID: 43901
Int'l Code: 2018-111AB
Perigee: 484.4 km
Apogee: 515.6 km
Inclination: 97.3 °
Period: 94.5 minutes
Semi major axis: 6870 km
RCS: Unknown
Launch date: December 27, 2018
Source: United States (US)
Launch site: VOSTOCHNY COSMODROME (VOSTO)
aabbcc
Your satellite tracking list
Your tracking list is empty




NASA's NSSDC Master Catalog

Two Line Element Set (TLE):
1 43901U 18111AB  19167.78525216 +.00000891 +00000-0 +39086-4 0  9997
2 43901 097.2902 073.0341 0022697 004.3837 355.7595 15.24311591026152
Source of the keplerian elements: AFSPC